Notices

What's New in latest Release from April 7th, 2021:

- Updated Glossary, including Speed of Maximum Gust, and Total Hourly Precipitation

- Updated national and regional climate services offices contacts and prices information

- Addition of station inventory lists for 1981-2010, 1971-2000, and 1961-1990 Normals.

If you haven't already, please take our survey and provide feedback about our website: https://eccc.sondage-survey.ca/f/LanguageSelection.aspx?s=442ca660-fcf1-47c0-95a9-59707d6fd709

Hourly Data Report for April 14, 2021

CORNER BROOK
NEWFOUNDLAND
Current Station Operator: ECCC - MSC

48°56'00.000" N
57°55'00.000" W
151.80 m
8401298
71973
WKB

Download Data

Hourly Data (April 2021)
Hourly Data Report for April 14, 2021
TIME
LST
Temp Definition
°C
Dew Point Definition
°C
Rel Hum Definition
%
Precip. Amount Definition
mm

Wind Dir Definition
10's deg

Wind Spd Definition
km/h
Visibility Definition
km
Stn Press Definition
kPa
Hmdx Definition


Wind Chill Definition


Weather Definition


00:30 0.4 -0.8 92 0.0 5 10   99.93     LegendNANA
01:30 0.5 -0.8 92 0.0 5 8   99.91     LegendNANA
02:30 0.5 -0.9 91 0.0 6 6   99.87     LegendNANA
03:30 0.4 -0.9 91 0.0 8 14   99.86     LegendNANA
04:30 0.2 -1.1 91 0.0 7 13   99.84     LegendNANA
05:30 0.1 -1.3 90 0.0 6 11   99.83     LegendNANA
06:30 -0.1 -1.7 89 0.0 5 11   99.86   -4 LegendNANA
07:30 -0.2 -2.2 87 0.0 5 15   99.88   -5 LegendNANA
08:30 0.1 -2.4 84 0.6 4 13   99.91     LegendNANA
09:30 1.7 -1.6 79 0.0 7 15   99.90     LegendNANA
10:30 3.3 -0.6 75 0.0 6 9   99.85     LegendNANA
11:30 4.7 -1.3 65 0.0 8 13   99.80     LegendNANA
12:30 6.2 -1.4 58 0.0 10 12   99.75     LegendNANA
13:30 7.8 -1.3 52 0.0 9 12   99.70     LegendNANA
14:30 8.7 -3.2 43 0.0 9 14   99.62     LegendNANA
15:30 9.5 -1.6 46 0.0 7 12   99.57     LegendNANA
16:30 8.7 -2.9 44 0.0 32 16   99.56     LegendNANA
17:30 7.5 -3.7 45 0.0 33 12   99.53     LegendNANA
18:30 6.5 -3.7 48 0.0 34 11   99.54     LegendNANA
19:30 4.4 -3.9 55 0.0 1 8   99.54     LegendNANA
20:30 2.7 -2.9 66 0.0 6 6   99.59     LegendNANA
21:30 1.1 -2.0 80 0.0 8 13   99.60     LegendNANA
22:30 0.0 -2.3 85 0.0 6 8   99.62   -3 LegendNANA
23:30 -0.5 -2.5 86 0.0 5 3   99.60   -1 LegendNANA

Notes on Data Quality.

Legend

  • E = Estimated
  • M = Missing
  • NA = Not Available*
  • [empty] = Indicates an unobserved value
Date modified: